Location: DARK SKY Beskydy - Park tmavé oblohy, www.darkskybeskydy.cz
(49.4926°N, 18.5016°E)
Time: 03:51:41
(UTC+01:00)

Envisat - Pass Details

Date: 04 December 2022
Orbit: 763 x 765 km, 98.2° (Epoch: 05 February)

Event Time Altitude Azimuth Distance (km) Brightness Sun altitude
Rises 04:41:10 0° 10° (N) 3,245 6.3 -25.5°
Reaches altitude 10° 04:43:31 10° 6° (N) 2,314 5.5 -25.1°
Enters shadow 04:46:08 29° 352° (N) 1,377 4.1 -24.7°
